Time,TemperatureF,DewpointF,PressureIn,WindDirection,WindDirectionDegrees,WindSpeedMPH,WindSpeedGustMPH,Humidity,HourlyPrecipIn,Conditions,Clouds,dailyrainin,SoftwareType,DateUTC
2013-08-15 00:02:00,47.5,33.4,31.18,NE,45,1.0,4.0,58,0.00,,,0.00,meteohub,2013-08-15 06:02:00,
2013-08-15 00:07:00,47.5,33.4,31.18,NE,45,1.0,4.0,58,0.00,,,0.00,meteohub,2013-08-15 06:07:00,
2013-08-15 00:12:00,45.3,32.2,31.18,East,90,4.0,4.0,60,0.00,,,0.00,meteohub,2013-08-15 06:12:00,
2013-08-15 00:17:00,45.0,32.0,31.18,NE,45,2.0,4.0,60,0.00,,,0.00,meteohub,2013-08-15 06:17:00,
2013-08-15 00:22:00,44.6,31.6,31.18,SE,135,4.0,4.0,60,0.00,,,0.00,meteohub,2013-08-15 06:22:00,
2013-08-15 00:27:00,44.6,32.0,31.18,South,180,2.0,4.0,61,0.00,,,0.00,meteohub,2013-08-15 06:27:00,
2013-08-15 00:32:00,44.4,32.2,31.18,SE,135,5.0,5.0,62,0.00,,,0.00,meteohub,2013-08-15 06:32:00,
2013-08-15 00:37:00,44.2,32.4,31.18,NE,45,2.0,5.0,63,0.00,,,0.00,meteohub,2013-08-15 06:37:00,
2013-08-15 00:42:00,44.2,32.9,31.18,East,90,1.0,5.0,64,0.00,,,0.00,meteohub,2013-08-15 06:42:00,
2013-08-15 00:47:00,44.2,32.9,31.18,SE,135,6.0,6.0,64,0.00,,,0.00,meteohub,2013-08-15 06:47:00,
2013-08-15 00:52:00,44.6,33.3,31.17,SE,135,5.0,7.0,64,0.00,,,0.00,meteohub,2013-08-15 06:52:00,
2013-08-15 00:57:00,45.1,33.3,31.18,East,90,5.0,7.0,63,0.00,,,0.00,meteohub,2013-08-15 06:57:00,
2013-08-15 01:02:00,45.5,33.3,31.18,East,90,6.0,7.0,62,0.00,,,0.00,meteohub,2013-08-15 07:02:00,
2013-08-15 01:07:00,45.5,33.3,31.18,SE,135,3.0,7.0,62,0.00,,,0.00,meteohub,2013-08-15 07:07:00,
2013-08-15 01:12:00,45.1,32.5,31.17,SE,135,2.0,7.0,61,0.00,,,0.00,meteohub,2013-08-15 07:12:00,
2013-08-15 01:17:00,44.4,32.5,31.17,SE,135,3.0,7.0,63,0.00,,,0.00,meteohub,2013-08-15 07:17:00,
2013-08-15 01:22:00,43.7,32.0,31.17,East,90,3.0,5.0,63,0.00,,,0.00,meteohub,2013-08-15 07:22:00,
2013-08-15 01:27:00,43.3,31.6,31.18,South,180,2.0,7.0,63,0.00,,,0.00,meteohub,2013-08-15 07:27:00,
2013-08-15 01:32:00,43.3,32.0,31.18,South,180,2.0,7.0,64,0.00,,,0.00,meteohub,2013-08-15 07:32:00,
2013-08-15 01:37:00,43.2,31.8,31.18,South,180,2.0,7.0,64,0.00,,,0.00,meteohub,2013-08-15 07:37:00,
2013-08-15 01:42:00,43.0,31.6,31.17,NE,45,2.0,4.0,64,0.00,,,0.00,meteohub,2013-08-15 07:42:00,
2013-08-15 01:47:00,42.6,31.6,31.17,SE,135,4.0,4.0,65,0.00,,,0.00,meteohub,2013-08-15 07:47:00,
2013-08-15 01:52:00,42.6,32.0,31.17,SE,135,3.0,5.0,66,0.00,,,0.00,meteohub,2013-08-15 07:52:00,
2013-08-15 01:57:00,42.8,31.8,31.18,SW,225,2.0,5.0,65,0.00,,,0.00,meteohub,2013-08-15 07:57:00,
2013-08-15 02:02:00,42.8,31.8,31.17,West,270,1.0,5.0,65,0.00,,,0.00,meteohub,2013-08-15 08:02:00,
2013-08-15 02:07:00,42.8,31.8,31.18,West,270,1.0,5.0,65,0.00,,,0.00,meteohub,2013-08-15 08:07:00,
2013-08-15 02:12:00,41.9,32.2,31.17,NE,45,3.0,3.0,68,0.00,,,0.00,meteohub,2013-08-15 08:12:00,
2013-08-15 02:17:00,41.4,31.6,31.17,SE,135,2.0,3.0,68,0.00,,,0.00,meteohub,2013-08-15 08:17:00,
2013-08-15 02:22:00,41.0,31.6,31.17,East,90,4.0,4.0,69,0.00,,,0.00,meteohub,2013-08-15 08:22:00,
2013-08-15 02:27:00,41.2,32.2,31.17,North,0,1.0,4.0,70,0.00,,,0.00,meteohub,2013-08-15 08:27:00,
2013-08-15 02:32:00,41.0,32.0,31.17,NE,45,1.0,4.0,70,0.00,,,0.00,meteohub,2013-08-15 08:32:00,
2013-08-15 02:37:00,40.5,31.8,31.17,NE,45,2.0,4.0,71,0.00,,,0.00,meteohub,2013-08-15 08:37:00,
2013-08-15 02:42:00,40.1,31.8,31.17,SE,135,4.0,4.0,72,0.00,,,0.00,meteohub,2013-08-15 08:42:00,
2013-08-15 02:47:00,40.8,32.5,31.17,SE,135,4.0,4.0,72,0.00,,,0.00,meteohub,2013-08-15 08:47:00,
2013-08-15 02:52:00,41.5,33.3,31.17,East,90,5.0,7.0,72,0.00,,,0.00,meteohub,2013-08-15 08:52:00,
2013-08-15 02:57:00,41.9,33.3,31.16,SE,135,5.0,7.0,71,0.00,,,0.00,meteohub,2013-08-15 08:57:00,
2013-08-15 03:02:00,42.1,33.4,31.17,East,90,2.0,7.0,71,0.00,,,0.00,meteohub,2013-08-15 09:02:00,
2013-08-15 03:07:00,41.9,32.9,31.17,North,0,1.0,5.0,70,0.00,,,0.00,meteohub,2013-08-15 09:07:00,
2013-08-15 03:12:00,41.5,32.5,31.17,West,270,2.0,5.0,70,0.00,,,0.00,meteohub,2013-08-15 09:12:00,
2013-08-15 03:17:00,41.0,32.4,31.16,East,90,2.0,4.0,71,0.00,,,0.00,meteohub,2013-08-15 09:17:00,
2013-08-15 03:22:00,40.5,32.2,31.17,NE,45,4.0,5.0,72,0.00,,,0.00,meteohub,2013-08-15 09:22:00,
2013-08-15 03:27:00,40.6,32.4,31.16,SE,135,4.0,7.0,72,0.00,,,0.00,meteohub,2013-08-15 09:27:00,
2013-08-15 03:32:00,41.0,32.4,31.16,South,180,3.0,7.0,71,0.00,,,0.00,meteohub,2013-08-15 09:32:00,
2013-08-15 03:37:00,40.8,32.5,31.16,SE,135,4.0,7.0,72,0.00,,,0.00,meteohub,2013-08-15 09:37:00,
2013-08-15 03:42:00,40.6,32.4,31.16,SE,135,5.0,5.0,72,0.00,,,0.00,meteohub,2013-08-15 09:42:00,
2013-08-15 03:47:00,41.0,32.7,31.16,East,90,3.0,5.0,72,0.00,,,0.00,meteohub,2013-08-15 09:47:00,
2013-08-15 03:52:00,41.2,32.9,31.16,SE,135,5.0,7.0,72,0.00,,,0.00,meteohub,2013-08-15 09:52:00,
2013-08-15 03:57:00,41.5,32.9,31.16,SE,135,5.0,7.0,71,0.00,,,0.00,meteohub,2013-08-15 09:57:00,
2013-08-15 04:02:00,41.7,33.1,31.16,SE,135,4.0,7.0,71,0.00,,,0.00,meteohub,2013-08-15 10:02:00,
2013-08-15 04:07:00,41.7,33.1,31.17,SE,135,4.0,6.0,71,0.00,,,0.00,meteohub,2013-08-15 10:07:00,
2013-08-15 04:12:00,41.9,33.3,31.16,East,90,4.0,6.0,71,0.00,,,0.00,meteohub,2013-08-15 10:12:00,
2013-08-15 04:17:00,41.9,33.3,31.16,East,90,4.0,6.0,71,0.00,,,0.00,meteohub,2013-08-15 10:17:00,
2013-08-15 04:22:00,41.5,32.5,31.16,ESE,113,4.0,7.0,70,0.00,,,0.00,meteohub,2013-08-15 10:22:00,
2013-08-15 04:26:00,41.7,33.1,31.16,SE,135,6.0,7.0,71,0.00,,,0.00,meteohub,2013-08-15 10:26:00,
2013-08-15 04:32:00,41.9,33.3,31.17,East,90,4.0,8.0,71,0.00,,,0.00,meteohub,2013-08-15 10:32:00,
2013-08-15 04:37:00,42.1,33.4,31.17,SE,135,3.0,8.0,71,0.00,,,0.00,meteohub,2013-08-15 10:37:00,
2013-08-15 04:42:00,41.5,32.5,31.16,East,90,2.0,7.0,70,0.00,,,0.00,meteohub,2013-08-15 10:42:00,
2013-08-15 04:47:00,41.4,32.4,31.16,SE,135,4.0,6.0,70,0.00,,,0.00,meteohub,2013-08-15 10:47:00,
2013-08-15 04:52:00,41.2,32.2,31.17,SE,135,3.0,6.0,70,0.00,,,0.00,meteohub,2013-08-15 10:52:00,
2013-08-15 04:57:00,41.4,32.7,31.17,SW,225,2.0,6.0,71,0.00,,,0.00,meteohub,2013-08-15 10:57:00,
2013-08-15 05:02:00,40.8,32.5,31.17,South,180,3.0,6.0,72,0.00,,,0.00,meteohub,2013-08-15 11:02:00,
2013-08-15 05:07:00,40.3,32.0,31.17,North,0,2.0,4.0,72,0.00,,,0.00,meteohub,2013-08-15 11:07:00,
2013-08-15 05:12:00,39.4,31.1,31.17,North,0,3.0,3.0,72,0.00,,,0.00,meteohub,2013-08-15 11:12:00,
2013-08-15 05:17:00,38.7,31.1,31.17,NW,315,1.0,3.0,74,0.00,,,0.00,meteohub,2013-08-15 11:17:00,
2013-08-15 05:22:00,38.1,30.6,31.17,East,90,2.0,3.0,74,0.00,,,0.00,meteohub,2013-08-15 11:22:00,
2013-08-15 05:27:00,37.9,30.7,31.17,East,90,0.0,4.0,75,0.00,,,0.00,meteohub,2013-08-15 11:27:00,
2013-08-15 05:32:00,37.6,30.7,31.17,West,270,0.0,4.0,76,0.00,,,0.00,meteohub,2013-08-15 11:32:00,
2013-08-15 05:37:00,37.0,28.9,31.17,NE,45,2.0,3.0,72,0.00,,,0.00,meteohub,2013-08-15 11:37:00,
2013-08-15 05:42:00,36.9,28.9,31.17,SW,225,0.0,3.0,73,0.00,,,0.00,meteohub,2013-08-15 11:42:00,
2013-08-15 05:47:00,36.5,28.8,31.16,NE,45,2.0,3.0,73,0.00,,,0.00,meteohub,2013-08-15 11:47:00,
2013-08-15 05:52:00,36.7,29.1,31.17,East,90,3.0,4.0,74,0.00,,,0.00,meteohub,2013-08-15 11:52:00,
2013-08-15 05:57:00,37.2,29.7,31.17,North,0,2.0,4.0,74,0.00,,,0.00,meteohub,2013-08-15 11:57:00,
2013-08-15 06:02:00,37.0,29.5,31.17,NE,45,1.0,4.0,74,0.00,,,0.00,meteohub,2013-08-15 12:02:00,
2013-08-15 06:07:00,37.0,29.5,31.17,NE,45,1.0,4.0,74,0.00,,,0.00,meteohub,2013-08-15 12:07:00,
2013-08-15 06:12:00,36.7,29.5,31.17,South,180,2.0,2.0,75,0.00,,,0.00,meteohub,2013-08-15 12:12:00,
2013-08-15 06:17:00,36.7,29.5,31.17,South,180,1.0,2.0,75,0.00,,,0.00,meteohub,2013-08-15 12:17:00,
2013-08-15 06:22:00,36.9,30.0,31.17,NE,45,2.0,2.0,76,0.00,,,0.00,meteohub,2013-08-15 12:22:00,
2013-08-15 06:27:00,37.0,30.2,31.17,North,0,2.0,2.0,76,0.00,,,0.00,meteohub,2013-08-15 12:27:00,
2013-08-15 06:32:00,37.0,30.2,31.17,North,0,1.0,4.0,76,0.00,,,0.00,meteohub,2013-08-15 12:32:00,
2013-08-15 06:37:00,36.9,30.0,31.18,North,0,1.0,4.0,76,0.00,,,0.00,meteohub,2013-08-15 12:37:00,
2013-08-15 06:42:00,36.7,29.8,31.18,SW,225,2.0,4.0,76,0.00,,,0.00,meteohub,2013-08-15 12:42:00,
2013-08-15 06:47:00,36.5,29.7,31.17,East,90,2.0,3.0,76,0.00,,,0.00,meteohub,2013-08-15 12:47:00,
2013-08-15 06:52:00,36.3,29.8,31.18,West,270,1.0,3.0,77,0.00,,,0.00,meteohub,2013-08-15 12:52:00,
2013-08-15 06:57:00,36.1,29.7,31.18,South,180,2.0,3.0,77,0.00,,,0.00,meteohub,2013-08-15 12:57:00,
2013-08-15 07:02:00,36.0,29.8,31.18,North,0,2.0,3.0,78,0.00,,,0.00,meteohub,2013-08-15 13:02:00,
2013-08-15 07:07:00,35.8,29.7,31.18,East,90,4.0,4.0,78,0.00,,,0.00,meteohub,2013-08-15 13:07:00,
2013-08-15 07:12:00,36.9,30.9,31.18,East,90,6.0,6.0,79,0.00,,,0.00,meteohub,2013-08-15 13:12:00,
2013-08-15 07:17:00,38.5,33.8,31.18,SE,135,5.0,7.0,83,0.00,,,0.00,meteohub,2013-08-15 13:17:00,
2013-08-15 07:22:00,39.6,34.5,31.18,East,90,2.0,7.0,82,0.00,,,0.00,meteohub,2013-08-15 13:22:00,
2013-08-15 07:27:00,40.1,34.7,31.18,SE,135,5.0,6.0,81,0.00,,,0.00,meteohub,2013-08-15 13:27:00,
2013-08-15 07:32:00,40.8,34.9,31.18,East,90,3.0,5.0,79,0.00,,,0.00,meteohub,2013-08-15 13:32:00,
2013-08-15 07:37:00,41.2,34.5,31.18,SE,135,4.0,5.0,77,0.00,,,0.00,meteohub,2013-08-15 13:37:00,
2013-08-15 07:42:00,41.7,34.7,31.18,SE,135,4.0,6.0,76,0.00,,,0.00,meteohub,2013-08-15 13:42:00,
2013-08-15 07:47:00,42.1,35.1,31.18,East,90,4.0,6.0,76,0.00,,,0.00,meteohub,2013-08-15 13:47:00,
2013-08-15 07:52:00,42.3,34.9,31.18,NE,45,4.0,6.0,75,0.00,,,0.00,meteohub,2013-08-15 13:52:00,
2013-08-15 07:57:00,42.8,34.7,31.18,East,90,4.0,6.0,73,0.00,,,0.00,meteohub,2013-08-15 13:57:00,
2013-08-15 08:02:00,43.3,34.9,31.18,East,90,3.0,5.0,72,0.00,,,0.00,meteohub,2013-08-15 14:02:00,
2013-08-15 08:07:00,43.3,34.9,31.19,East,90,3.0,5.0,72,0.00,,,0.00,meteohub,2013-08-15 14:07:00,
2013-08-15 08:12:00,45.9,36.7,31.18,East,90,3.0,4.0,70,0.00,,,0.00,meteohub,2013-08-15 14:12:00,
2013-08-15 08:17:00,47.3,37.6,31.18,SE,135,4.0,4.0,69,0.00,,,0.00,meteohub,2013-08-15 14:17:00,
2013-08-15 08:22:00,48.4,37.6,31.18,East,90,5.0,6.0,66,0.00,,,0.00,meteohub,2013-08-15 14:22:00,
2013-08-15 08:27:00,49.3,37.9,31.18,East,90,4.0,6.0,65,0.00,,,0.00,meteohub,2013-08-15 14:27:00,
2013-08-15 08:32:00,50.0,37.6,31.18,SE,135,5.0,6.0,62,0.00,,,0.00,meteohub,2013-08-15 14:32:00,
2013-08-15 08:37:00,50.5,37.6,31.18,SE,135,6.0,7.0,61,0.00,,,0.00,meteohub,2013-08-15 14:37:00,
2013-08-15 08:42:00,50.9,37.9,31.18,SE,135,4.0,7.0,61,0.00,,,0.00,meteohub,2013-08-15 14:42:00,
2013-08-15 08:51:00,51.4,38.5,31.18,SE,135,4.0,7.0,61,0.00,,,0.00,meteohub,2013-08-15 14:51:00,
2013-08-15 08:57:00,53.1,39.6,31.18,SE,135,3.0,6.0,60,0.00,,,0.00,meteohub,2013-08-15 14:57:00,
2013-08-15 09:02:00,53.8,39.4,31.18,East,90,4.0,5.0,58,0.00,,,0.00,meteohub,2013-08-15 15:02:00,
2013-08-15 09:07:00,54.9,40.3,31.18,South,180,4.0,5.0,58,0.00,,,0.00,meteohub,2013-08-15 15:07:00,
2013-08-15 09:12:00,55.4,39.9,31.18,SE,135,2.0,5.0,56,0.00,,,0.00,meteohub,2013-08-15 15:12:00,
2013-08-15 09:17:00,55.8,39.9,31.18,SE,135,3.0,5.0,55,0.00,,,0.00,meteohub,2013-08-15 15:17:00,
2013-08-15 09:22:00,57.2,40.3,31.18,SE,135,1.0,4.0,53,0.00,,,0.00,meteohub,2013-08-15 15:22:00,
2013-08-15 09:27:00,58.3,40.8,31.17,NE,45,2.0,3.0,52,0.00,,,0.00,meteohub,2013-08-15 15:27:00,
2013-08-15 09:32:00,58.8,40.8,31.17,NW,315,3.0,3.0,51,0.00,,,0.00,meteohub,2013-08-15 15:32:00,
2013-08-15 09:37:00,59.2,40.1,31.18,NW,315,2.0,3.0,49,0.00,,,0.00,meteohub,2013-08-15 15:37:00,
2013-08-15 09:42:00,59.5,40.8,31.17,South,180,1.0,3.0,50,0.00,,,0.00,meteohub,2013-08-15 15:42:00,
2013-08-15 09:47:00,60.3,39.9,31.17,West,270,2.0,3.0,47,0.00,,,0.00,meteohub,2013-08-15 15:47:00,
2013-08-15 09:52:00,60.6,40.3,31.17,SW,225,2.0,3.0,47,0.00,,,0.00,meteohub,2013-08-15 15:52:00,
2013-08-15 09:57:00,61.2,40.3,31.17,NE,45,2.0,3.0,46,0.00,,,0.00,meteohub,2013-08-15 15:57:00,
2013-08-15 10:03:00,61.5,39.9,31.17,West,270,2.0,3.0,45,0.00,,,0.00,meteohub,2013-08-15 16:03:00,
2013-08-15 10:08:00,62.8,39.9,31.17,SW,225,2.0,2.0,43,0.00,,,0.00,meteohub,2013-08-15 16:08:00,
2013-08-15 10:13:00,63.1,40.3,31.17,NW,315,3.0,3.0,43,0.00,,,0.00,meteohub,2013-08-15 16:13:00,
2013-08-15 10:19:00,63.5,39.4,31.17,South,180,1.0,3.0,41,0.00,,,0.00,meteohub,2013-08-15 16:19:00,
2013-08-15 10:25:00,63.7,40.1,31.17,NW,315,2.0,3.0,42,0.00,,,0.00,meteohub,2013-08-15 16:25:00,
2013-08-15 10:30:00,64.6,39.0,31.17,North,0,2.0,3.0,39,0.00,,,0.00,meteohub,2013-08-15 16:30:00,
2013-08-15 10:35:00,65.3,38.3,31.17,NW,315,2.0,3.0,37,0.00,,,0.00,meteohub,2013-08-15 16:35:00,
2013-08-15 10:40:00,66.0,38.3,31.17,NW,315,4.0,4.0,36,0.00,,,0.00,meteohub,2013-08-15 16:40:00,
2013-08-15 10:45:00,66.4,37.9,31.17,West,270,4.0,6.0,35,0.00,,,0.00,meteohub,2013-08-15 16:45:00,
2013-08-15 10:50:00,66.7,37.4,31.17,NW,315,5.0,6.0,34,0.00,,,0.00,meteohub,2013-08-15 16:50:00,
2013-08-15 10:55:00,67.1,39.2,31.17,NW,315,5.0,6.0,36,0.00,,,0.00,meteohub,2013-08-15 16:55:00,
2013-08-15 11:00:00,67.6,40.5,31.17,NW,315,7.0,7.0,37,0.00,,,0.00,meteohub,2013-08-15 17:00:00,
2013-08-15 11:05:00,67.8,39.2,31.17,WNW,293,5.0,7.0,35,0.00,,,0.00,meteohub,2013-08-15 17:05:00,
2013-08-15 11:10:00,68.4,38.1,31.16,North,0,4.0,7.0,33,0.00,,,0.00,meteohub,2013-08-15 17:10:00,
2013-08-15 11:15:00,68.9,37.8,31.16,North,0,4.0,7.0,32,0.00,,,0.00,meteohub,2013-08-15 17:15:00,
2013-08-15 11:20:00,69.1,37.2,31.16,West,270,9.0,9.0,31,0.00,,,0.00,meteohub,2013-08-15 17:20:00,
2013-08-15 11:26:00,69.3,36.5,31.16,SW,225,9.0,9.0,30,0.00,,,0.00,meteohub,2013-08-15 17:26:00,
2013-08-15 11:31:00,70.5,32.0,31.16,NW,315,11.0,11.0,24,0.00,,,0.00,meteohub,2013-08-15 17:31:00,
2013-08-15 11:36:00,70.7,32.2,31.16,South,180,9.0,11.0,24,0.00,,,0.00,meteohub,2013-08-15 17:36:00,
2013-08-15 11:41:00,70.9,33.3,31.16,SW,225,8.0,11.0,25,0.00,,,0.00,meteohub,2013-08-15 17:41:00,
2013-08-15 11:47:00,70.9,32.4,31.16,SW,225,8.0,11.0,24,0.00,,,0.00,meteohub,2013-08-15 17:47:00,
2013-08-15 11:49:00,70.9,32.4,31.16,NW,315,11.0,11.0,24,0.00,,,0.00,meteohub,2013-08-15 17:49:00,
2013-08-15 11:52:00,70.9,30.2,31.16,SW,225,8.0,11.0,22,0.00,,,0.00,meteohub,2013-08-15 17:52:00,
2013-08-15 12:02:00,70.3,27.3,31.16,North,0,8.0,17.0,20,0.00,,,0.00,meteohub,2013-08-15 18:02:00,
2013-08-15 12:07:00,70.3,27.3,31.16,North,0,8.0,17.0,20,0.00,,,0.00,meteohub,2013-08-15 18:07:00,
2013-08-15 12:12:00,71.1,28.0,31.15,NW,315,10.0,17.0,20,0.00,,,0.00,meteohub,2013-08-15 18:12:00,
2013-08-15 12:17:00,71.6,28.4,31.15,SW,225,7.0,16.0,20,0.00,,,0.00,meteohub,2013-08-15 18:17:00,
2013-08-15 12:22:00,71.1,28.0,31.16,NE,45,11.0,16.0,20,0.00,,,0.00,meteohub,2013-08-15 18:22:00,
2013-08-15 12:27:00,71.4,27.0,31.16,North,0,11.0,16.0,19,0.00,,,0.00,meteohub,2013-08-15 18:27:00,
2013-08-15 12:32:00,72.1,26.2,31.15,NW,315,11.0,15.0,18,0.00,,,0.00,meteohub,2013-08-15 18:32:00,
2013-08-15 12:37:00,72.9,27.0,31.15,NW,315,13.0,15.0,18,0.00,,,0.00,meteohub,2013-08-15 18:37:00,
2013-08-15 12:43:00,72.0,23.4,31.15,NW,315,12.0,15.0,16,0.00,,,0.00,meteohub,2013-08-15 18:43:00,
2013-08-15 12:48:00,71.1,25.3,31.15,NW,315,9.0,15.0,18,0.00,,,0.00,meteohub,2013-08-15 18:48:00,
2013-08-15 12:54:00,71.2,25.5,31.15,WNW,293,11.0,14.0,18,0.00,,,0.00,meteohub,2013-08-15 18:54:00,
2013-08-15 12:59:00,71.8,26.1,31.15,North,0,10.0,14.0,18,0.00,,,0.00,meteohub,2013-08-15 18:59:00,
2013-08-15 13:04:00,72.5,23.7,31.15,WNW,293,10.0,15.0,16,0.00,,,0.00,meteohub,2013-08-15 19:04:00,
2013-08-15 13:09:00,73.0,25.7,31.15,NW,315,15.0,15.0,17,0.00,,,0.00,meteohub,2013-08-15 19:09:00,
2013-08-15 13:15:00,72.9,24.1,31.14,NE,45,8.0,15.0,16,0.00,,,0.00,meteohub,2013-08-15 19:15:00,
2013-08-15 13:20:00,73.6,30.0,31.14,South,180,11.0,15.0,20,0.00,,,0.00,meteohub,2013-08-15 19:20:00,
2013-08-15 13:25:00,73.8,28.9,31.14,North,0,8.0,15.0,19,0.00,,,0.00,meteohub,2013-08-15 19:25:00,
2013-08-15 13:31:00,72.3,22.1,31.14,North,0,8.0,12.0,15,0.00,,,0.00,meteohub,2013-08-15 19:31:00,
2013-08-15 13:37:00,72.7,23.9,31.14,NW,315,10.0,14.0,16,0.00,,,0.00,meteohub,2013-08-15 19:37:00,
2013-08-15 13:41:00,72.3,23.5,31.14,North,0,5.0,16.0,16,0.00,,,0.00,meteohub,2013-08-15 19:41:00,
2013-08-15 13:47:00,71.6,24.4,31.14,West,270,11.0,16.0,17,0.00,,,0.00,meteohub,2013-08-15 19:47:00,
2013-08-15 13:52:00,72.0,26.1,31.14,West,270,8.0,16.0,18,0.00,,,0.00,meteohub,2013-08-15 19:52:00,
2013-08-15 13:57:00,71.4,27.0,31.14,NW,315,8.0,11.0,19,0.00,,,0.00,meteohub,2013-08-15 19:57:00,
2013-08-15 14:02:00,70.5,25.0,31.14,West,270,4.0,11.0,18,0.00,,,0.00,meteohub,2013-08-15 20:02:00,
2013-08-15 14:07:00,70.5,25.0,31.14,West,270,4.0,11.0,18,0.00,,,0.00,meteohub,2013-08-15 20:07:00,
2013-08-15 14:13:00,71.6,25.9,31.14,North,0,12.0,12.0,18,0.00,,,0.00,meteohub,2013-08-15 20:13:00,
2013-08-15 14:18:00,71.6,23.0,31.14,NW,315,8.0,14.0,16,0.00,,,0.00,meteohub,2013-08-15 20:18:00,
2013-08-15 14:24:00,72.5,26.6,31.14,West,270,13.0,14.0,18,0.00,,,0.00,meteohub,2013-08-15 20:24:00,
2013-08-15 14:30:00,72.5,25.2,31.14,West,270,8.0,14.0,17,0.00,,,0.00,meteohub,2013-08-15 20:30:00,
2013-08-15 14:35:00,72.5,26.6,31.14,NE,45,10.0,13.0,18,0.00,,,0.00,meteohub,2013-08-15 20:35:00,
2013-08-15 14:40:00,72.5,26.6,31.14,SW,225,9.0,15.0,18,0.00,,,0.00,meteohub,2013-08-15 20:40:00,
2013-08-15 14:45:00,72.7,26.8,31.14,SW,225,8.0,15.0,18,0.00,,,0.00,meteohub,2013-08-15 20:45:00,
2013-08-15 14:50:00,73.4,32.2,31.13,West,270,6.0,15.0,22,0.00,,,0.00,meteohub,2013-08-15 20:50:00,
2013-08-15 14:55:00,74.1,32.9,31.13,NW,315,10.0,11.0,22,0.00,,,0.00,meteohub,2013-08-15 20:55:00,
2013-08-15 15:00:00,73.4,32.2,31.13,NW,315,4.0,12.0,22,0.00,,,0.00,meteohub,2013-08-15 21:00:00,
2013-08-15 15:05:00,73.2,27.1,31.14,SW,225,10.0,12.0,18,0.00,,,0.00,meteohub,2013-08-15 21:05:00,
2013-08-15 15:10:00,72.7,23.9,31.13,NW,315,11.0,11.0,16,0.00,,,0.00,meteohub,2013-08-15 21:10:00,
2013-08-15 15:17:00,71.8,21.6,31.13,SW,225,11.0,11.0,15,0.00,,,0.00,meteohub,2013-08-15 21:17:00,
2013-08-15 15:22:00,71.2,22.8,31.13,North,0,8.0,13.0,16,0.00,,,0.00,meteohub,2013-08-15 21:22:00,
2013-08-15 15:27:00,71.1,22.6,31.13,West,270,11.0,13.0,16,0.00,,,0.00,meteohub,2013-08-15 21:27:00,
2013-08-15 15:32:00,72.1,23.5,31.13,NW,315,8.0,14.0,16,0.00,,,0.00,meteohub,2013-08-15 21:32:00,
2013-08-15 15:37:00,72.9,24.1,31.13,SW,225,8.0,14.0,16,0.00,,,0.00,meteohub,2013-08-15 21:37:00,
2013-08-15 15:42:00,72.1,23.5,31.13,West,270,8.0,11.0,16,0.00,,,0.00,meteohub,2013-08-15 21:42:00,
2013-08-15 15:47:00,72.0,23.4,31.13,NW,315,11.0,16.0,16,0.00,,,0.00,meteohub,2013-08-15 21:47:00,
2013-08-15 15:52:00,72.7,23.9,31.13,NW,315,6.0,16.0,16,0.00,,,0.00,meteohub,2013-08-15 21:52:00,
2013-08-15 15:57:00,73.2,25.7,31.13,West,270,11.0,12.0,17,0.00,,,0.00,meteohub,2013-08-15 21:57:00,
2013-08-15 16:02:00,73.2,24.3,31.13,NE,45,7.0,12.0,16,0.00,,,0.00,meteohub,2013-08-15 22:02:00,
2013-08-15 16:07:00,74.5,28.2,31.13,West,270,8.0,12.0,18,0.00,,,0.00,meteohub,2013-08-15 22:07:00,
2013-08-15 16:12:00,75.0,31.3,31.13,West,270,8.0,11.0,20,0.00,,,0.00,meteohub,2013-08-15 22:12:00,
2013-08-15 16:17:00,73.6,26.1,31.13,NW,315,5.0,8.0,17,0.00,,,0.00,meteohub,2013-08-15 22:17:00,
2013-08-15 16:22:00,72.3,22.1,31.13,NW,315,6.0,16.0,15,0.00,,,0.00,meteohub,2013-08-15 22:22:00,
2013-08-15 16:28:00,72.0,21.7,31.13,North,0,11.0,16.0,15,0.00,,,0.00,meteohub,2013-08-15 22:28:00,
2013-08-15 16:33:00,72.1,21.9,31.13,West,270,8.0,16.0,15,0.00,,,0.00,meteohub,2013-08-15 22:33:00,
2013-08-15 16:38:00,73.2,24.3,31.13,West,270,11.0,13.0,16,0.00,,,0.00,meteohub,2013-08-15 22:38:00,
2013-08-15 16:43:00,73.9,29.1,31.13,North,0,8.0,13.0,19,0.00,,,0.00,meteohub,2013-08-15 22:43:00,
2013-08-15 16:45:00,74.3,28.0,31.13,NW,315,8.0,13.0,18,0.00,,,0.00,meteohub,2013-08-15 22:45:00,
2013-08-15 16:52:00,73.6,27.5,31.13,NW,315,9.0,11.0,18,0.00,,,0.00,meteohub,2013-08-15 22:52:00,
2013-08-15 16:57:00,73.2,22.8,31.13,North,0,11.0,11.0,15,0.00,,,0.00,meteohub,2013-08-15 22:57:00,
2013-08-15 17:02:00,73.4,27.3,31.13,West,270,7.0,11.0,18,0.00,,,0.00,meteohub,2013-08-15 23:02:00,
2013-08-15 17:07:00,73.0,22.6,31.14,West,270,5.0,11.0,15,0.00,,,0.00,meteohub,2013-08-15 23:07:00,
2013-08-15 17:12:00,72.0,21.7,31.14,West,270,8.0,11.0,15,0.00,,,0.00,meteohub,2013-08-15 23:12:00,
2013-08-15 17:17:00,72.3,22.1,31.14,West,270,9.0,10.0,15,0.00,,,0.00,meteohub,2013-08-15 23:17:00,
2013-08-15 17:22:00,73.0,21.0,31.13,North,0,3.0,10.0,14,0.00,,,0.00,meteohub,2013-08-15 23:22:00,
2013-08-15 17:27:00,73.0,21.0,31.14,NW,315,7.0,10.0,14,0.00,,,0.00,meteohub,2013-08-15 23:27:00,
2013-08-15 17:32:00,73.2,21.2,31.14,NW,315,10.0,11.0,14,0.00,,,0.00,meteohub,2013-08-15 23:32:00,
2013-08-15 17:37:00,73.6,26.1,31.14,NW,315,10.0,11.0,17,0.00,,,0.00,meteohub,2013-08-15 23:37:00,
2013-08-15 17:42:00,73.9,26.4,31.13,NW,315,13.0,13.0,17,0.00,,,0.00,meteohub,2013-08-15 23:42:00,
2013-08-15 17:47:00,73.9,26.4,31.13,West,270,8.0,13.0,17,0.00,,,0.00,meteohub,2013-08-15 23:47:00,
2013-08-15 17:52:00,73.8,26.2,31.13,SW,225,8.0,14.0,17,0.00,,,0.00,meteohub,2013-08-15 23:52:00,
2013-08-15 17:57:00,73.6,26.1,31.13,NW,315,8.0,14.0,17,0.00,,,0.00,meteohub,2013-08-15 23:57:00,
2013-08-15 18:05:00,73.6,26.1,31.13,NW,315,9.0,14.0,17,0.00,,,0.00,meteohub,2013-08-16 00:05:00,
2013-08-15 18:10:00,73.2,21.2,31.13,West,270,5.0,11.0,14,0.00,,,0.00,meteohub,2013-08-16 00:10:00,
2013-08-15 18:15:00,73.2,21.2,31.14,NW,315,7.0,10.0,14,0.00,,,0.00,meteohub,2013-08-16 00:15:00,
2013-08-15 18:20:00,73.0,21.0,31.13,SW,225,4.0,10.0,14,0.00,,,0.00,meteohub,2013-08-16 00:20:00,
2013-08-15 18:25:00,72.7,20.7,31.14,West,270,5.0,10.0,14,0.00,,,0.00,meteohub,2013-08-16 00:25:00,